Weather History for Little Rock, AR

Change the Weather History Date:

Monday, July 7, 2003

  Actual Average Record
Temperature  
Mean Temperature 83 °F 82 °F  
Max Temperature 91 °F 92 °F 106 °F (1998)
Min Temperature 75 °F 73 °F 54 °F (1972)
Degree Days  
Heating Degree Days 0 0  
Month to date heating degree days 0  
Since 1 June heating degree days 0  
Since 1 July heating degree days 0  
Cooling Degree Days 18 17  
Month to date cooling degree days 119  
Year to date cooling degree days 825  
Since 1 June cooling degree days 544  
Growing Degree Days 33 (Base 50)    
Moisture  
Dew Point 75 °F    
Average Humidity 79    
Maximum Humidity 97    
Minimum Humidity 59    
Precipitation  
Precipitation 0.00 in 0.12 in 1.09 in (1978)
Month to date precipitation 0.78  
Year to date precipitation 26.33  
Snow  
Snow 0.00 in 0.00 in - ()
Month to date snowfall 0.0  
Since 1 June snowfall 0.0  
Since 1 July snowfall 0.0  
Snow Depth -    
Sea Level Pressure  
Sea Level Pressure 30.07 in    
Wind  
Wind Speed 7 mph (SSW)    
Max Wind Speed 9 mph    
Max Gust Speed -    
Visibility 7 miles    
Events      
T = Trace of Precipitation, MM = Missing Value Source: NWS Daily Summary

Daily Weather History Graph

Daily Weather History Graph

Search for Another Location

Airport:

Trip Planner

Search our weather history database for the weather conditions in past years. The results will help you decide how hot, cold, wet, or windy it might be!

Date:

Astronomy

Jul. 07, 2003 Rise Set
Actual Time 6:02 AM CDT 8:25 PM CDT
Civil Twilight 5:32 AM CDT 8:54 PM CDT
Nautical Twilight 4:56 AM CDT 9:30 PM CDT
Astronomical Twilight 4:17 AM CDT 10:09 PM CDT
Moon 2:00 PM CDT (7/7) 1:05 AM CDT (7/7)
Length of Visible Light 15h 21m
Length of Day
14h 23m
First Quarter, 57% of the Moon is Illuminated
Jul 7
First Quarter
Jul 13
Full
Jul 21
Last Quarter
Jul 29
New
Aug 5
First Quarter

Hourly Weather History & Observations

Time (CDT) Temp. Heat Index Dew Point Humidity Pressure Visibility Wind Dir Wind Speed Gust Speed Precip Events Conditions
12:53 AM 77.0 °F - 75.0 °F 94% 30.01 in 7.0 mi SSW 6.9 mph - N/A   Clear
1:53 AM 75.9 °F - 73.9 °F 94% 30.01 in 7.0 mi SSW 6.9 mph - N/A   Clear
2:53 AM 77.0 °F - 75.0 °F 94% 30.02 in 7.0 mi SW 6.9 mph - N/A   Mostly Cloudy
3:53 AM 77.0 °F - 75.0 °F 94% 30.03 in 7.0 mi SW 3.5 mph - N/A   Mostly Cloudy
4:53 AM 75.9 °F - 75.0 °F 97% 30.04 in 7.0 mi SW 3.5 mph - N/A   Mostly Cloudy
5:53 AM 75.9 °F - 75.0 °F 97% 30.06 in 5.0 mi South 3.5 mph - N/A   Mostly Cloudy
6:53 AM 75.9 °F - 75.0 °F 97% 30.07 in 5.0 mi SSW 3.5 mph - N/A   Mostly Cloudy
7:53 AM 77.0 °F - 75.0 °F 94% 30.09 in 6.0 mi SW 6.9 mph - N/A   Mostly Cloudy
8:53 AM 80.1 °F 85.1 °F 75.0 °F 85% 30.10 in 7.0 mi SW 6.9 mph - N/A   Mostly Cloudy
9:53 AM 82.9 °F 91.8 °F 77.0 °F 82% 30.10 in 7.0 mi SW 8.1 mph - N/A   Mostly Cloudy
10:53 AM 86.0 °F 96.0 °F 75.9 °F 72% 30.11 in 7.0 mi West 9.2 mph - N/A   Mostly Cloudy
11:53 AM 87.1 °F 97.3 °F 75.9 °F 69% 30.11 in 7.0 mi West 9.2 mph - N/A   Mostly Cloudy
12:53 PM 88.0 °F 98.5 °F 75.9 °F 67% 30.10 in 7.0 mi WSW 6.9 mph - N/A   Mostly Cloudy
1:53 PM 89.1 °F 99.1 °F 75.0 °F 63% 30.09 in 7.0 mi WSW 8.1 mph - N/A   Mostly Cloudy
2:53 PM 88.0 °F 98.5 °F 75.9 °F 67% 30.08 in 7.0 mi SW 8.1 mph - N/A   Mostly Cloudy
3:53 PM 91.0 °F 101.6 °F 75.0 °F 59% 30.06 in 7.0 mi South 6.9 mph - N/A   Mostly Cloudy
4:53 PM 90.0 °F 101.3 °F 75.9 °F 63% 30.06 in 7.0 mi South 8.1 mph - N/A   Mostly Cloudy
5:53 PM 89.1 °F 100.2 °F 75.9 °F 65% 30.05 in 7.0 mi South 9.2 mph - N/A   Mostly Cloudy
6:53 PM 88.0 °F 96.5 °F 73.9 °F 63% 30.05 in 7.0 mi SSW 8.1 mph - N/A   Mostly Cloudy
7:53 PM 86.0 °F 93.8 °F 73.9 °F 67% 30.07 in 7.0 mi South 5.8 mph - N/A   Mostly Cloudy
8:53 PM 82.9 °F 90.2 °F 75.0 °F 77% 30.09 in 7.0 mi South 6.9 mph - N/A   Mostly Cloudy
9:53 PM 82.0 °F 88.6 °F 75.0 °F 79% 30.10 in 7.0 mi South 8.1 mph - N/A   Mostly Cloudy
10:53 PM 80.1 °F 84.5 °F 73.9 °F 81% 30.10 in 7.0 mi South 9.2 mph - N/A   Partly Cloudy
11:53 PM 78.1 °F - 73.9 °F 87% 30.11 in 7.0 mi SSE 6.9 mph - N/A   Clear